EHI
0 0 0 0 0 0 0 0 0 0 0 0 0 0 0 0 0 0 0 0 0 0 0 0 0 0 0 0 0 0 0 0 0 0 0 0 0 0 0 0 0 0 1
0 0 0 0 0 0 0 0 0 0 0 0 0 0 0 0 0 0 0 0 0 0 0 0 0 0 0 0 0 0 0 0 0 0 0 0 0 0 0 0 0 0 1
0 0 0 0 0 0 0 0 0 0 0 0 0 0 0 0 0 0 0 0 0 0 0 0 0 0 0 0 0 0 0 0 0 0 0 0 0 0 0 0 0 0 1
0 0 0 0 0 0 0 0 0 0 0 0 0 0 0 0 0 0 0 0 0 0 0 0 0 0 0 0 0 0 0 0 0 0 0 0 0 0 0 0 0 0 0
0 0 0 0 0 0 0 0 0 0 0 0 0 0 0 0 0 0 0 0 0 0 0 0 0 0 0 0 0 0 0 0 0 0 0 0 0 0 0 0 0 0 1
0 0 0 0 0 0 0 0 0 0 0 0 0 0 0 0 0 0 0 0 0 0 0 0 0 0 0 0 0 0 0 0 0 0 0 0 0 0 0 0 0 0 1
0 0 0 0 0 0 0 0 0 0 0 0 0 0 0 0 0 0 0 0 0 0 0 0 0 0 0 0 0 0 0 0 0 0 0 0 0 0 0 0 0 0 1
0 0 0 0 0 0 0 0 0 0 0 0 0 0 0 0 0 0 0 0 0 0 0 0 0 0 0 0 0 0 0 0 0 0 0 0 0 0 0 0 0 0 0
0 0 0 0 0 0 0 0 0 0 0 0 0 0 0 0 0 0 0 0 0 0 0 0 0 0 0 0 0 0 0 0 0 0 0 0 0 0 0 0 0 0 0
0 0 0 0 0 0 0 0 0 0 0 0 0 0 0 0 0 0 0 0 0 0 0 0 0 0 0 0 0 0 0 0 0 0 0 0 0 0 0 0 0 0 0
0 0 0 0 0 0 0 0 0 0 0 0 0 0 0 0 0 0 0 0 0 0 0 0 0 0 0 0 0 0 0 0 0 0 0 0 0 0 0 0 0 0 0
0 0 0 0 0 0 0 0 0 0 0 0 0 0 0 0 0 0 0 0 0 0 0 0 0 0 0 0 0 0 0 0 0 0 0 0 0 0 0 0 0 0 0
0 0 0 0 0 0 0 0 0 0 0 0 0 0 0 0 0 0 0 0 0 0 0 0 0 0 0 0 0 0 0 0 0 0 0 0 0 0 0 0 0 0 0
0 0 0 0 0 0 0 0 0 0 0 0 0 0 0 0 0 0 0 0 0 0 0 0 0 0 0 0 0 0 0 0 0 0 0 0 0 0 0 0 0 0 0
0 0 0 0 0 0 0 0 0 0 0 0 0 0 0 0 0 0 0 0 0 0 0 0 0 0 0 0 0 0 0 0 0 0 0 0 0 0 0 0 0 0 0
0 0 0 0 0 0 0 0 0 0 0 0 0 0 0 0 0 0 0 0 0 0 0 0 0 0 0 0 0 0 0 0 0 0 0 0 0 0 0 0 0 0 0
0 0 0 0 0 0 0 0 0 0 0 0 0 0 0 0 0 0 0 0 0 0 0 0 0 0 0 0 0 0 0 0 0 0 0 0 0 0 0 0 0 0 0
0 0 0 0 0 0 0 0 0 0 0 0 0 0 0 0 0 0 0 0 0 0 0 0 0 0 0 0 0 0 0 0 0 0 0 0 0 0 0 0 0 0 0
0 0 0 0 0 0 0 0 0 0 0 0 0 0 0 0 0 0 0 0 0 0 0 0 0 0 0 0 0 0 0 0 0 0 0 0 0 0 0 0 0 0 0
0 0 0 0 0 0 0 0 0 0 0 0 0 0 0 0 0 0 0 0 0 0 0 0 0 0 0 0 0 0 0 0 0 0 0 0 0 0 0 0 0 0 0
0 0 0 0 0 0 0 0 0 0 0 0 0 0 0 0 0 0 0 0 0 0 0 0 0 0 0 0 0 0 0 0 0 0 0 0 0 0 0 0 0 0 0
0 0 0 0 0 0 0 0 0 0 0 0 0 0 0 0 0 0 0 0 0 0 0 0 0 0 0 0 0 0 0 0 0 0 0 0 0 0 0 0 0 0 0
0 0 0 0 0 0 0 0 0 0 0 0 0 0 0 0 0 0 0 0 0 0 0 0 0 0 0 0 0 0 0 0 0 0 0 0 0 0 0 0 0 0 0
0 0 0 0 0 0 0 0 0 0 0 0 0 0 0 0 0 0 0 0 0 0 0 0 0 0 0 0 0 0 0 0 0 0 0 0 0 0 0 0 0 0 0
0 0 0 0 0 0 0 0 0 0 0 0 0 0 0 0 0 0 0 0 0 0 0 0 0 0 0 0 0 0 0 0 0 0 0 0 0 0 0 0 0 0 0
0 0 0 0 0 0 0 0 0 0 0 0 0 0 0 0 0 0 0 0 0 0 0 0 0 0 0 0 0 0 0 0 0 0 0 0 0 0 0 0 0 0 0
Wind_Speed
3 5 3 2 3 4 5 5 4 4 4 3 3 4 4 4 4 3 4 4 4 4 4 4 3 3 2 3 3 2 3 3 2 1 2 2 3 4 3 2 2 3 4
2 4 3 3 4 4 4 5 5 5 3 2 3 3 4 3 3 3 4 4 4 4 5 4 3 3 2 3 3 2 2 2 3 3 2 1 2 3 4 2 2 3 3
3 4 4 3 4 4 5 6 5 5 5 5 3 4 4 3 4 4 3 4 4 4 3 4 4 3 2 2 3 3 3 3 3 4 3 3 3 2 2 2 2 2 2
2 2 3 4 4 4 5 5 6 6 6 5 4 5 4 4 5 4 4 5 4 3 3 3 4 3 2 2 3 3 2 3 3 2 3 3 2 2 1 2 2 2 2
2 2 2 3 3 4 4 4 5 5 5 5 5 4 3 3 4 4 5 5 4 4 4 3 3 3 2 3 2 2 3 2 3 3 2 2 2 2 2 2 2 1 2
2 1 2 3 3 3 3 3 3 4 4 5 5 4 4 5 5 5 5 4 3 3 4 4 3 3 2 2 2 2 3 3 3 3 3 2 2 3 3 3 3 2 2
1 2 3 3 2 2 2 3 4 4 4 5 5 5 5 5 5 5 5 5 4 3 4 4 3 3 2 2 2 2 3 3 3 3 3 3 3 2 2 2 2 2 1
2 2 2 2 1 1 2 3 3 3 4 4 5 5 5 4 4 5 4 4 4 4 5 4 4 3 3 3 2 2 3 3 3 4 3 3 3 3 3 3 3 2 1
2 2 2 1 1 1 2 2 3 3 3 4 4 4 5 5 5 5 4 4 4 5 5 5 4 3 3 3 2 2 3 2 3 3 3 3 3 3 3 3 4 4 3
2 2 2 1 1 1 0 1 2 2 3 4 4 4 4 5 4 4 5 5 5 5 5 5 4 3 3 2 2 2 3 2 3 3 3 3 3 3 3 3 3 4 4
2 2 2 1 1 0 1 1 1 2 3 4 4 5 4 4 4 4 4 5 5 6 5 5 4 4 3 2 2 3 2 2 2 2 3 3 3 3 3 3 3 4 4
3 3 2 1 1 0 1 2 2 2 2 3 4 5 4 4 5 5 5 6 6 6 6 5 4 4 4 3 3 3 3 2 2 2 2 3 3 3 3 3 4 4 4
4 3 3 2 1 0 1 1 1 1 1 2 3 4 5 5 5 5 6 6 6 6 6 6 5 5 4 4 4 4 3 2 2 2 2 2 2 2 2 3 3 3 4
4 4 3 3 2 1 1 0 1 0 0 1 2 3 4 4 4 5 5 6 6 6 6 6 6 5 5 5 5 5 4 3 2 1 1 1 1 1 1 1 1 2 2
3 3 4 3 3 3 2 1 0 0 1 1 1 3 4 4 4 4 5 5 5 6 5 5 5 5 4 5 6 5 5 3 2 2 1 1 1 1 1 1 1 1 1
2 3 3 3 3 2 2 2 1 1 0 1 1 2 3 3 4 4 4 5 5 5 5 5 5 5 5 8 8 6 4 4 3 2 1 1 2 2 3 3 2 2 2
2 2 2 3 3 1 2 2 1 1 1 1 1 1 2 3 3 4 4 5 4 4 4 5 5 5 5 8 9 9 5 3 2 2 1 1 1 0 1 2 3 3 4
3 2 2 2 2 2 3 2 3 1 0 1 1 0 1 2 2 3 3 3 4 4 3 4 4 4 5 8 8 9 4 3 3 3 2 1 2 2 2 1 1 1 1
3 2 1 2 2 2 2 1 2 2 2 1 1 1 0 1 2 3 3 3 3 4 4 3 4 4 5 7 7 8 3 3 3 3 4 4 3 4 4 1 1 1 0
3 2 1 1 1 2 2 1 2 1 1 1 1 0 0 1 1 2 3 3 3 3 3 3 3 3 3 4 6 7 3 3 3 3 3 5 4 5 4 1 1 1 1
3 2 1 1 0 1 1 2 2 1 2 2 1 1 1 2 2 2 2 3 3 3 3 3 2 1 2 2 3 4 2 3 3 2 2 2 5 5 5 2 0 1 1
3 2 2 1 1 1 1 2 1 0 1 1 1 2 3 3 2 2 3 3 3 4 4 3 2 1 0 1 1 3 3 3 2 2 2 2 4 4 4 2 1 0 1
3 2 1 1 2 2 2 2 2 1 2 3 3 4 4 4 3 3 3 3 3 2 3 2 2 2 1 1 1 1 3 4 2 2 3 3 3 3 2 1 2 1 1
2 2 1 1 1 1 1 0 1 1 3 4 4 4 4 4 4 3 3 2 2 2 2 2 2 2 2 1 1 1 1 2 2 2 3 4 4 2 2 2 2 1 1
3 2 1 0 1 1 1 0 1 2 3 4 4 4 4 3 3 3 3 3 3 3 3 2 2 2 2 1 1 1 1 1 2 3 2 2 2 1 1 1 1 1 1
2 2 2 1 1 2 2 2 2 3 4 4 4 2 2 2 2 3 3 6 7 7 8 8 5 3 4 4 3 3 3 4 4 3 2 3 3 2 2 1 1 1 2
Wind_Direction
95 97 76 46 17 21 18 359 353 0 5 5 339 337 327 323 315 317 332 331 320 318 304 296 295 287 270 263 250 239 220 218 201 201 266 273 257 268 257 232 216 174 182
59 92 78 50 31 30 14 349 0 349 3 357 336 323 322 316 315 334 334 331 324 319 310 303 286 272 258 259 259 241 218 229 197 178 171 223 265 267 249 229 225 201 178
26 31 38 30 30 34 16 357 355 354 9 357 352 340 334 326 339 337 332 324 315 310 309 303 297 285 266 246 245 240 224 219 219 198 184 177 199 224 266 240 231 212 195
55 49 34 31 18 35 28 358 358 5 8 356 356 344 334 337 328 324 318 318 313 315 312 297 290 286 280 263 246 237 235 217 222 227 223 214 170 165 217 282 257 227 197
78 52 51 50 20 37 28 358 360 4 3 342 327 318 337 329 318 320 319 322 320 325 322 314 303 294 286 276 263 253 243 226 220 215 217 225 211 199 177 208 230 248 229
107 101 77 74 46 41 20 357 356 1 343 330 329 339 343 334 328 329 328 326 321 320 329 321 308 300 288 280 274 256 248 241 237 225 208 206 193 196 194 194 200 207 240
105 82 66 56 44 20 7 349 3 356 345 338 336 340 342 338 338 335 329 327 324 322 321 315 305 296 290 285 277 258 249 241 237 231 220 213 214 202 195 183 191 199 225
111 87 80 75 50 360 12 8 358 338 339 337 339 339 348 348 335 331 330 329 322 313 314 314 307 305 296 286 277 264 251 244 235 236 226 219 216 210 195 181 168 169 217
125 125 111 79 43 24 28 12 345 343 346 341 336 351 348 341 340 337 335 329 323 321 329 317 311 303 297 287 279 268 262 252 243 237 226 220 218 213 202 188 175 170 181
144 131 126 118 53 32 13 312 308 331 352 347 345 353 343 340 336 333 341 335 330 328 322 323 320 316 308 299 291 279 257 251 251 242 231 224 215 208 203 195 193 187 180
136 129 132 144 162 259 298 305 338 23 17 356 348 340 336 332 334 343 342 337 335 331 331 329 337 332 323 317 311 301 279 253 252 249 236 229 215 204 205 200 197 193 186
137 146 149 173 180 15 345 340 9 34 25 360 340 328 327 341 351 350 349 347 344 339 337 339 350 344 342 346 333 320 312 277 266 259 245 243 231 210 202 203 202 201 192
159 162 157 179 178 257 287 304 21 43 16 360 330 327 343 355 354 351 353 348 345 347 348 350 353 350 352 350 340 335 322 301 277 261 243 242 232 229 215 206 200 205 201
162 166 163 187 187 211 265 307 31 22 342 340 320 335 343 352 358 360 355 349 351 355 356 355 355 355 355 352 351 344 334 324 305 289 272 256 224 233 216 210 202 197 193
174 173 172 192 190 195 206 171 161 302 343 333 349 4 354 4 359 357 355 355 357 358 357 358 355 354 355 3 360 342 331 326 319 306 283 200 153 158 151 179 166 138 180
191 179 182 181 197 204 182 150 163 147 318 342 32 24 349 358 350 352 359 356 351 351 358 358 355 357 3 359 356 348 331 330 330 324 317 225 190 181 177 185 184 174 187
161 171 191 173 186 184 119 102 91 98 270 351 51 37 359 355 355 354 355 348 344 355 358 353 355 358 359 355 354 351 338 326 329 331 342 343 2 140 158 179 188 199 217
138 154 178 158 180 171 143 148 164 188 206 33 2 40 344 337 341 338 335 335 340 347 342 341 346 351 358 7 5 352 348 346 351 360 1 14 31 26 27 89 148 174 209
113 129 141 151 177 142 127 188 192 172 171 165 279 304 301 330 332 326 323 324 330 328 327 333 346 352 2 18 14 3 349 1 5 16 23 27 41 34 20 70 136 139 144
96 106 128 193 159 132 124 277 282 224 169 157 192 323 2 329 309 307 311 313 308 304 315 327 336 353 2 25 20 12 358 356 359 9 28 42 39 21 9 10 157 158 169
115 122 158 167 61 96 153 259 294 6 72 83 40 334 286 264 257 267 283 293 299 306 306 303 306 335 1 30 26 15 8 348 343 356 8 22 24 15 358 353 88 177 153
132 164 187 181 180 222 240 262 278 50 95 140 238 261 263 267 277 255 263 277 290 292 293 295 304 302 75 86 34 8 355 346 348 346 357 15 9 4 360 358 336 17 35
137 161 204 209 207 216 224 256 244 205 208 213 231 242 247 240 239 245 254 260 265 275 287 303 314 314 322 148 115 358 343 352 352 341 327 324 327 335 322 284 274 273 197
126 133 150 210 262 255 153 266 297 263 246 240 238 238 242 240 233 227 233 249 265 280 293 304 303 302 315 357 24 322 312 329 331 323 314 308 305 299 286 278 272 246 190
103 110 114 128 342 6 57 22 307 298 286 274 257 247 243 245 246 235 229 232 228 220 233 259 283 302 302 279 336 352 339 344 333 323 305 287 275 271 262 240 225 192 159
91 98 98 76 9 359 23 27 352 316 298 296 299 294 277 254 248 253 256 238 232 232 227 229 234 248 244 238 250 273 292 306 320 321 287 283 271 254 242 230 228 209 195